When you browse on this site, cookies collect data to enhance your experience and personalize the content and advertising you see.
Visit our Privacy Policy to learn more. By continuing to use the site, you agree to this use of cookies and data.
  • In Sweden
  • List of Countries
  • For 7 days
  • Water Temperature
  • Weather Map
  • Weather Widgets
  • user-avatar
    Login

    Hourly Weather Sekowo

    Today, 22 February, Saturday

    Time Temperature Precipitation Wind Pressure Humidity
    00:00 0°C° 0 mm 4 mps 756 mmHg 87%
    01:00 0°C° 0 mm 4 mps 756 mmHg 87%
    02:00 -1°C° 0 mm 4 mps 755 mmHg 88%
    03:00 -1°C° 0 mm 5 mps 755 mmHg 88%
    04:00 -1°C° 0 mm 5 mps 754 mmHg 89%
    05:00 -1°C° 0 mm 5 mps 754 mmHg 88%
    06:00 -1°C° 0 mm 5 mps 754 mmHg 86%
    07:00 -2°C° 0 mm 6 mps 754 mmHg 85%
    08:00 0°C° 0 mm 7 mps 753 mmHg 79%
    09:00 +2°C° 0 mm 7 mps 752 mmHg 73%
    10:00 +2°C° 0 mm 8 mps 752 mmHg 68%
    11:00 +3°C° 0 mm 9 mps 751 mmHg 66%
    12:00 +3°C° 0 mm 9 mps 750 mmHg 64%
    13:00 +5°C° 0 mm 10 mps 749 mmHg 61%
    14:00 +5°C° 0 mm 9 mps 749 mmHg 59%
    15:00 +6°C° 0 mm 9 mps 748 mmHg 57%
    16:00 +6°C° 0 mm 8 mps 747 mmHg 55%
    17:00 +6°C° 0 mm 8 mps 747 mmHg 54%
    18:00 +6°C° 0 mm 8 mps 746 mmHg 53%
    19:00 +6°C° 0 mm 9 mps 746 mmHg 53%
    20:00 +6°C° 0 mm 9 mps 746 mmHg 57%
    21:00 +6°C° 0 mm 10 mps 745 mmHg 61%
    22:00 +6°C° 0 mm 10 mps 745 mmHg 65%
    23:00 +6°C° 0.7 mm 9 mps 745 mmHg 69%

    Tomorrow, 23 February, Sunday

    Time Temperature Precipitation Wind Pressure Humidity
    00:00 +5°C° 0.7 mm 9 mps 746 mmHg 73%
    01:00 +4°C° 0.7 mm 8 mps 746 mmHg 76%
    02:00 +4°C° 0 mm 8 mps 746 mmHg 75%
    03:00 +2°C° 0 mm 8 mps 746 mmHg 74%
    04:00 +3°C° 0 mm 7 mps 746 mmHg 72%
    05:00 +1°C° 0 mm 8 mps 746 mmHg 72%
    06:00 +1°C° 0 mm 8 mps 746 mmHg 72%
    07:00 +1°C° 0 mm 8 mps 747 mmHg 72%
    08:00 +1°C° 0.1 mm 8 mps 746 mmHg 73%
    09:00 +1°C° 0.1 mm 9 mps 746 mmHg 74%
    10:00 +2°C° 0.1 mm 9 mps 746 mmHg 74%
    11:00 +2°C° 0.2 mm 9 mps 746 mmHg 70%
    12:00 +2°C° 0.2 mm 9 mps 745 mmHg 66%
    13:00 +4°C° 0.2 mm 8 mps 745 mmHg 62%
    14:00 +3°C° 0 mm 7 mps 744 mmHg 66%
    15:00 +3°C° 0 mm 6 mps 743 mmHg 70%
    16:00 +3°C° 0 mm 5 mps 742 mmHg 74%
    17:00 +3°C° 0.6 mm 4 mps 740 mmHg 81%
    18:00 +3°C° 0.6 mm 3 mps 739 mmHg 88%
    19:00 +3°C° 0.6 mm 2 mps 738 mmHg 95%
    20:00 +2°C° 1.3 mm 3 mps 738 mmHg 95%
    21:00 +1°C° 1.3 mm 4 mps 737 mmHg 95%
    22:00 0°C° 1.3 mm 5 mps 737 mmHg 96%
    23:00 -1°C° 0.7 mm 6 mps 739 mmHg 92%

    Day after tomorrow, 24 February, Monday

    Time Temperature Precipitation Wind Pressure Humidity
    00:00 -1°C° 0.7 mm 7 mps 741 mmHg 89%
    01:00 -1°C° 0.7 mm 8 mps 742 mmHg 86%
    02:00 -1°C° 0 mm 8 mps 743 mmHg 83%
    03:00 -1°C° 0 mm 8 mps 744 mmHg 79%
    04:00 -1°C° 0 mm 8 mps 745 mmHg 76%
    05:00 -1°C° 0 mm 8 mps 746 mmHg 78%
    06:00 0°C° 0 mm 8 mps 747 mmHg 80%
    07:00 0°C° 0 mm 8 mps 748 mmHg 82%
    08:00 0°C° 0 mm 7 mps 749 mmHg 81%
    09:00 0°C° 0 mm 7 mps 749 mmHg 80%
    10:00 +2°C° 0 mm 7 mps 750 mmHg 79%
    11:00 +2°C° 0 mm 7 mps 750 mmHg 76%
    12:00 +2°C° 0 mm 7 mps 750 mmHg 74%
    13:00 +3°C° 0 mm 7 mps 750 mmHg 71%
    14:00 +2°C° 0 mm 7 mps 750 mmHg 72%
    15:00 +2°C° 0 mm 6 mps 749 mmHg 73%
    16:00 +1°C° 0 mm 6 mps 749 mmHg 74%
    17:00 +1°C° 0 mm 6 mps 749 mmHg 75%
    18:00 +1°C° 0 mm 5 mps 748 mmHg 77%
    19:00 0°C° 0 mm 5 mps 748 mmHg 79%
    20:00 0°C° 0 mm 4 mps 747 mmHg 80%
    21:00 0°C° 0 mm 4 mps 746 mmHg 81%
    22:00 +1°C° 0 mm 3 mps 745 mmHg 82%
    23:00 0°C° 0.1 mm 4 mps 744 mmHg 83%

    25 February, Tuesday

    Time Temperature Precipitation Wind Pressure Humidity
    00:00 +1°C° 0.1 mm 5 mps 743 mmHg 84%
    01:00 +1°C° 0.1 mm 6 mps 742 mmHg 85%
    02:00 +2°C° 1.3 mm 6 mps 740 mmHg 86%
    03:00 +3°C° 1.3 mm 6 mps 739 mmHg 87%
    04:00 +3°C° 1.3 mm 6 mps 738 mmHg 88%
    05:00 +4°C° 0.2 mm 7 mps 738 mmHg 88%
    06:00 +5°C° 0.2 mm 7 mps 738 mmHg 88%
    07:00 +6°C° 0.2 mm 7 mps 737 mmHg 88%
    08:00 +6°C° 0.2 mm 8 mps 737 mmHg 85%
    09:00 +6°C° 0.2 mm 8 mps 737 mmHg 81%
    10:00 +7°C° 0.2 mm 9 mps 737 mmHg 77%
    11:00 +6°C° 0.1 mm 8 mps 737 mmHg 76%
    12:00 +6°C° 0.1 mm 7 mps 737 mmHg 75%
    13:00 +6°C° 0.1 mm 7 mps 737 mmHg 74%
    14:00 +6°C° 0 mm 7 mps 736 mmHg 73%
    15:00 +5°C° 0 mm 7 mps 736 mmHg 72%
    16:00 +5°C° 0 mm 7 mps 736 mmHg 71%
    17:00 +4°C° 0 mm 6 mps 736 mmHg 71%
    18:00 +3°C° 0 mm 5 mps 736 mmHg 71%
    19:00 +3°C° 0 mm 4 mps 736 mmHg 72%
    20:00 +3°C° 0 mm 4 mps 736 mmHg 72%
    21:00 +2°C° 0 mm 5 mps 736 mmHg 71%
    22:00 +2°C° 0 mm 5 mps 736 mmHg 71%
    23:00 +1°C° 0 mm 5 mps 736 mmHg 72%

    26 February, Wednesday

    Time Temperature Precipitation Wind Pressure Humidity
    00:00 +1°C° 0 mm 5 mps 736 mmHg 73%
    01:00 +1°C° 0 mm 5 mps 736 mmHg 74%
    02:00 0°C° 0 mm 5 mps 735 mmHg 75%
    03:00 0°C° 0 mm 5 mps 735 mmHg 76%
    04:00 0°C° 0 mm 5 mps 735 mmHg 77%
    05:00 -1°C° 0 mm 5 mps 735 mmHg 78%
    06:00 -1°C° 0 mm 5 mps 735 mmHg 80%
    07:00 -1°C° 0 mm 4 mps 735 mmHg 81%
    08:00 0°C° 0 mm 5 mps 735 mmHg 76%
    09:00 +1°C° 0 mm 5 mps 735 mmHg 72%
    10:00 +2°C° 0 mm 5 mps 735 mmHg 67%
    11:00 +3°C° 0 mm 5 mps 735 mmHg 62%
    12:00 +5°C° 0 mm 5 mps 735 mmHg 57%
    13:00 +5°C° 0 mm 5 mps 735 mmHg 52%
    14:00 +5°C° 0 mm 4 mps 735 mmHg 54%
    15:00 +5°C° 0 mm 3 mps 735 mmHg 56%
    16:00 +6°C° 0 mm 2 mps 735 mmHg 58%
    17:00 +6°C° 0 mm 1 mps 735 mmHg 62%
    18:00 +5°C° 0 mm 1 mps 735 mmHg 65%
    19:00 +5°C° 0 mm 1 mps 736 mmHg 68%
    20:00 +4°C° 0 mm 1 mps 736 mmHg 69%
    21:00 +4°C° 0 mm 1 mps 736 mmHg 69%
    22:00 +3°C° 0 mm 2 mps 737 mmHg 70%
    23:00 +3°C° 0 mm 2 mps 737 mmHg 72%

    27 February, Thursday

    Time Temperature Precipitation Wind Pressure Humidity
    00:00 +3°C° 0 mm 2 mps 737 mmHg 74%
    01:00 +2°C° 0 mm 3 mps 737 mmHg 76%
    02:00 +1°C° 0.1 mm 3 mps 738 mmHg 78%
    03:00 0°C° 0.1 mm 4 mps 738 mmHg 81%
    04:00 0°C° 0.1 mm 4 mps 738 mmHg 83%
    05:00 -1°C° 0 mm 4 mps 739 mmHg 85%
    06:00 -1°C° 0 mm 4 mps 739 mmHg 86%
    07:00 -2°C° 0 mm 4 mps 740 mmHg 88%
    08:00 -2°C° 0 mm 5 mps 741 mmHg 87%
    09:00 -1°C° 0 mm 5 mps 741 mmHg 86%
    10:00 0°C° 0 mm 5 mps 742 mmHg 85%
    11:00 0°C° 0.1 mm 5 mps 743 mmHg 78%
    12:00 +1°C° 0.1 mm 5 mps 743 mmHg 72%
    13:00 +1°C° 0.1 mm 6 mps 744 mmHg 65%
    14:00 +1°C° 0 mm 5 mps 744 mmHg 65%
    15:00 +1°C° 0 mm 5 mps 744 mmHg 64%
    16:00 +1°C° 0 mm 5 mps 745 mmHg 64%
    17:00 0°C° 0 mm 4 mps 745 mmHg 68%
    18:00 0°C° 0 mm 3 mps 745 mmHg 72%
    19:00 -1°C° 0 mm 2 mps 746 mmHg 77%
    20:00 -1°C° 0 mm 2 mps 746 mmHg 77%
    21:00 -1°C° 0 mm 2 mps 746 mmHg 78%
    22:00 0°C° 0 mm 1 mps 746 mmHg 78%
    23:00 -2°C° 0 mm 2 mps 746 mmHg 79%
    Show more